Date String (YYYY-MM-DD hh:mm:ss) UTC,Instrument flags,absolute air pressure of the measurement (hPa),sample flow rate (lpm),inlet stack bypass flow (lpm),air temperature of the measurement (°C),ambient temperature measured by the external sensor (°C),aerosol sample conditioner tube jacket temperature (°C),OPC LED temperature (°C),internal box temperature (°C),relative humidity of the measurement (%),span deviation,mass concentration of particles derived from Lorenz-Mie calculation of OPC scattering (μg/m³),mass concentration of particles derived from Lorenz-Mie calculation of OPC scattering (μg/m³),mass concentration of particles derived from Lorenz-Mie calculation of OPC scattering (μg/m³)
DateTimeUTC,F1_M11,P_M11,Q1_M11,Q2_M11,T1_M11,T2_M11,T3_M11,T4_M11,T5_M11,U1_M11,ZSPAN_M11,X2_M11,X0_M11,X1_M11
2024-05-16 11:00:00,SystemResetWarning,0827.8,5.00,000.00,025.8,025.0,000.0,034.0,027.5,022.9,0000.0,0002.82,0008.04,0002.38
2024-05-16 11:01:00,SystemResetWarning,0827.7,5.01,000.00,025.8,025.0,000.0,034.0,027.5,022.9,0000.0,0002.85,0007.96,0002.38
2024-05-16 11:02:00,SystemResetWarning,0827.8,5.01,000.00,025.8,025.0,000.0,034.0,027.5,022.9,0000.0,0002.87,0007.65,0002.37
2024-05-16 11:03:00,SystemResetWarning,0827.7,5.00,000.00,025.8,025.0,000.0,034.0,027.5,023.0,0000.0,0002.83,0007.60,0002.35
2024-05-16 11:04:00,SystemResetWarning,0827.7,5.00,000.00,025.8,025.0,000.0,034.0,027.6,023.0,0000.0,0002.79,0007.78,0002.34
2024-05-16 11:05:00,SystemResetWarning,0827.7,5.00,000.00,025.8,025.0,000.0,034.0,027.5,023.1,0000.0,0002.77,0007.29,0002.33
2024-05-16 11:06:00,SystemResetWarning,0827.7,4.99,000.00,025.8,025.0,000.0,034.0,027.5,023.2,0000.0,0002.77,0007.77,0002.30
2024-05-16 11:07:00,SystemResetWarning,0827.7,5.01,000.00,025.8,025.0,000.0,034.0,027.5,023.3,0000.0,0002.74,0007.72,0002.29
2024-05-16 11:08:00,SystemResetWarning,0827.7,5.00,000.00,025.8,025.0,000.0,034.0,027.5,023.4,0000.0,0002.77,0007.83,0002.27
2024-05-16 11:09:00,SystemResetWarning,0827.7,5.01,000.00,025.8,025.0,000.0,034.0,027.5,023.5,0000.0,0002.83,0008.18,0002.26
2024-05-16 11:10:00,SystemResetWarning,0827.7,5.00,000.00,025.8,025.0,000.0,034.0,027.5,023.6,0000.0,0002.90,0008.50,0002.26
2024-05-16 11:11:00,SystemResetWarning,0827.7,5.00,000.00,025.8,025.0,000.0,034.0,027.5,023.6,0000.0,0002.99,0008.35,0002.27
2024-05-16 11:12:00,SystemResetWarning,0827.7,4.99,000.00,025.7,025.0,000.0,034.0,027.5,023.7,0000.0,0003.04,0008.02,0002.28
2024-05-16 11:13:00,SystemResetWarning,0827.7,5.00,000.00,025.7,025.0,000.0,034.0,027.5,023.8,0000.0,0003.09,0008.10,0002.29
2024-05-16 11:14:00,SystemResetWarning,0827.7,5.01,000.00,025.7,025.0,000.0,034.0,027.5,023.8,0000.0,0003.19,0008.38,0002.32
2024-05-16 11:15:00,SystemResetWarning,0827.7,5.00,000.00,025.7,025.0,000.0,034.0,027.5,023.8,0000.0,0003.25,0008.66,0002.35
2024-05-16 11:16:00,SystemResetWarning,0827.7,5.00,000.00,025.7,025.0,000.0,034.0,027.5,023.9,0000.0,0003.30,0009.49,0002.36
2024-05-16 11:17:00,SystemResetWarning,0827.7,5.00,000.00,025.7,025.0,000.0,034.0,027.5,023.9,0000.0,0003.37,0009.15,0002.39
2024-05-16 11:18:00,SystemResetWarning,0827.7,4.99,000.00,025.7,025.0,000.0,034.0,027.5,024.1,0000.0,0003.42,0009.38,0002.41
2024-05-16 11:19:00,SystemResetWarning,0827.7,4.99,000.00,025.7,025.0,000.0,034.0,027.5,024.2,0000.0,0003.44,0010.02,0002.41
2024-05-16 11:20:00,SystemResetWarning,0827.7,4.99,000.00,025.7,025.0,000.0,034.0,027.5,024.3,0000.0,0003.45,0010.10,0002.42
2024-05-16 11:21:00,SystemResetWarning,0827.7,5.00,000.00,025.7,025.0,000.0,034.0,027.5,024.3,0000.0,0003.44,0010.02,0002.40
2024-05-16 11:22:00,SystemResetWarning,0827.7,5.01,000.00,025.7,025.0,000.0,034.0,027.5,024.3,0000.0,0003.41,0009.76,0002.37
2024-05-16 11:23:00,SystemResetWarning,0827.7,5.01,000.00,025.7,025.0,000.0,034.0,027.5,024.2,0000.0,0003.38,0010.09,0002.35
2024-05-16 11:24:00,SystemResetWarning,0827.7,5.01,000.00,025.7,025.0,000.0,034.0,027.5,024.1,0000.0,0003.37,0010.17,0002.33
2024-05-16 11:25:00,SystemResetWarning,0827.7,5.00,000.00,025.7,025.0,000.0,034.0,027.5,023.9,0000.0,0003.30,0009.96,0002.31
2024-05-16 11:26:00,SystemResetWarning,0827.7,5.00,000.00,025.7,025.0,000.0,034.0,027.5,023.8,0000.0,0003.27,0010.29,0002.30
2024-05-16 11:27:00,SystemResetWarning,0827.7,4.99,000.00,025.7,025.0,000.0,034.0,027.5,023.7,0000.0,0003.25,0009.51,0002.29
2024-05-16 11:28:00,SystemResetWarning,0827.7,5.00,000.00,025.7,025.0,000.0,034.0,027.5,023.7,0000.0,0003.21,0009.29,0002.28
2024-05-16 11:29:00,SystemResetWarning,0827.7,5.00,000.00,025.7,025.0,000.0,034.0,027.5,023.7,0000.0,0003.18,0009.18,0002.26
2024-05-16 11:30:00,SystemResetWarning,0827.6,5.01,000.00,025.7,025.0,000.0,034.0,027.5,023.6,0000.0,0003.18,0008.62,0002.27
2024-05-16 11:31:00,SystemResetWarning,0827.6,5.01,000.00,025.7,025.0,000.0,034.0,027.5,023.6,0000.0,0003.18,0008.53,0002.25
2024-05-16 11:32:00,SystemResetWarning,0827.7,5.00,000.00,025.7,025.0,000.0,034.0,027.5,023.6,0000.0,0003.15,0009.05,0002.25
2024-05-16 11:33:00,SystemResetWarning,0827.7,4.99,000.00,025.7,025.0,000.0,034.0,027.5,023.5,0000.0,0003.17,0009.40,0002.27
2024-05-16 11:34:00,SystemResetWarning,0827.7,5.00,000.00,025.7,025.0,000.0,034.0,027.5,023.5,0000.0,0003.17,0008.87,0002.26
2024-05-16 11:35:00,SystemResetWarning,0827.7,5.01,000.00,025.7,025.0,000.0,034.0,027.5,023.5,0000.0,0003.15,0008.63,0002.26
2024-05-16 11:36:00,SystemResetWarning,0827.6,5.01,000.00,025.7,025.0,000.0,034.0,027.5,023.5,0000.0,0003.12,0008.62,0002.25
2024-05-16 11:37:00,SystemResetWarning,0827.6,4.99,000.00,025.7,024.9,000.0,034.0,027.5,023.5,0000.0,0003.09,0008.09,0002.23
2024-05-16 11:38:00,SystemResetWarning,0827.7,4.99,000.00,025.7,024.9,000.0,034.0,027.4,023.5,0000.0,0003.04,0007.70,0002.22
2024-05-16 11:39:00,SystemResetWarning,0827.6,5.00,000.00,025.7,024.9,000.0,034.0,027.4,023.5,0000.0,0003.01,0007.61,0002.20
2024-05-16 11:40:00,SystemResetWarning,0827.7,5.00,000.00,025.7,024.9,000.0,034.0,027.5,023.5,0000.0,0002.93,0007.56,0002.19
2024-05-16 11:41:00,SystemResetWarning,0827.7,5.01,000.00,025.7,024.9,000.0,034.0,027.5,023.5,0000.0,0002.94,0008.66,0002.18
2024-05-16 11:42:00,SystemResetWarning,0827.7,5.01,000.00,025.7,024.9,000.0,034.0,027.5,023.5,0000.0,0002.84,0008.30,0002.17
2024-05-16 11:43:00,SystemResetWarning,0827.7,4.99,000.00,025.7,024.9,000.0,033.9,027.4,023.4,0000.0,0002.82,0007.52,0002.17
2024-05-16 11:44:00,SystemResetWarning,0827.7,4.98,000.00,025.7,024.9,000.0,034.0,027.5,023.4,0000.0,0002.80,0006.83,0002.16
2024-05-16 11:45:00,SystemResetWarning,0827.7,5.00,000.00,025.7,024.9,000.0,034.0,027.5,023.4,0000.0,0002.80,0007.51,0002.17
2024-05-16 11:46:00,SystemResetWarning,0827.6,5.01,000.00,025.7,024.9,000.0,034.0,027.5,023.5,0000.0,0002.82,0007.75,0002.18
2024-05-16 11:47:00,SystemResetWarning,0827.7,5.00,000.00,025.7,024.9,000.0,034.0,027.4,023.5,0000.0,0002.88,0007.77,0002.19
2024-05-16 11:48:00,SystemResetWarning,0827.7,4.99,000.00,025.7,024.9,000.0,033.9,027.4,023.5,0000.0,0002.95,0007.81,0002.20
2024-05-16 11:49:00,SystemResetWarning,0827.6,4.99,000.00,025.7,024.9,000.0,033.9,027.5,023.5,0000.0,0003.01,0008.71,0002.20
2024-05-16 11:50:00,SystemResetWarning,0827.6,5.00,000.00,025.7,024.9,000.0,033.9,027.4,023.5,0000.0,0003.05,0008.92,0002.20
2024-05-16 11:51:00,SystemResetWarning,0827.6,5.01,000.00,025.7,024.9,000.0,033.9,027.4,023.4,0000.0,0003.06,0008.79,0002.21
2024-05-16 11:52:00,SystemResetWarning,0827.7,5.01,000.00,025.7,024.9,000.0,033.9,027.4,023.4,0000.0,0003.03,0008.47,0002.19
2024-05-16 11:53:00,SystemResetWarning,0827.7,5.00,000.00,025.7,024.9,000.0,033.9,027.4,023.4,0000.0,0003.02,0008.53,0002.19
2024-05-16 11:54:00,SystemResetWarning,0827.7,4.99,000.00,025.7,024.9,000.0,033.9,027.4,023.3,0000.0,0002.99,0008.53,0002.19
2024-05-16 11:55:00,SystemResetWarning,0827.7,5.00,000.00,025.7,024.9,000.0,033.9,027.4,023.3,0000.0,0002.95,0008.49,0002.19
2024-05-16 11:56:00,SystemResetWarning,0827.7,5.02,000.00,025.7,024.9,000.0,033.9,027.4,023.3,0000.0,0002.93,0007.87,0002.17
2024-05-16 11:57:00,SystemResetWarning,0827.7,4.99,000.00,025.7,024.9,000.0,033.9,027.4,023.2,0000.0,0002.92,0008.04,0002.17
2024-05-16 11:58:00,SystemResetWarning,0827.6,4.99,000.00,025.7,024.9,000.0,033.9,027.4,023.2,0000.0,0002.87,0008.08,0002.16
2024-05-16 11:59:00,SystemResetWarning,0827.6,5.01,000.00,025.7,024.9,000.0,033.9,027.4,023.2,0000.0,0002.85,0008.08,0002.15
